Flag for Pakistan Weather past 2 weeks in Karachi, Sindh, Pakistan

Now
93 °F

Passing clouds.


Feels Like: 107 °F
Forecast: 84 / 94 °F
Wind: 17 mph from Southwest

Location: Karachi Airport

Current Time: May 27, 2015 at 4:01:12 PM

Latest Report: May 27, 2015 at 3:25 PM


Visibility: 4 mi

Pressure: 29.65 "Hg

Humidity: 59%

Dew point: 77 °F

Location of KarachiLocation

Historic Weather in Karachi — Graph

°F

Karachi temperature yesterday

Maximum temperature yesterday: 97 °F (at 1:25 PM)
Minimum temperature yesterday: 84 °F (at 12:25 AM)
Average temperature yesterday: 89 °F

Past Weeks' High & Low Weather Summary

 TemperatureHumidityPressure
High99 °F (May 15, 12:25 PM)100% (May 18, 6:30 PM)29.83 "Hg (May 18, 6:30 PM)
Low36 °F (May 18, 6:30 PM)27% (May 17, 9:25 AM)29.56 "Hg (May 17, 4:25 PM)
Average88 °F66%29.68 "Hg
* Reported May 12 2:25 PM — May 27 2:55 PM, Karachi, Weather by CustomWeather, © 2015

Note: Actual official high and low records may vary slightly from our data, if they occured in-between our weather recording intervals... More about our weather records

Advertising

Karachi weather history for previous 24 hours

 ConditionsComfort  
Time TempWeatherWind HumidityBarometerVisibility
2:55 PM
Wed, May 27
95 °FPassing clouds.16 mph56%29.65 "Hg4 mi
2:30 PM95 °FPassing clouds.15 mph56%29.68 "Hg4 mi
1:25 PM95 °FPassing clouds.14 mph56%29.68 "Hg4 mi
12:55 PM95 °FPassing clouds.13 mph56%29.68 "Hg4 mi
12:25 PM95 °FPassing clouds.16 mph53%29.71 "Hg4 mi
11:55 AM95 °FPassing clouds.14 mph53%29.71 "Hg4 mi
10:55 AM93 °FPassing clouds.14 mph56%29.74 "Hg4 mi
10:25 AM91 °FScattered clouds.12 mph59%29.74 "Hg4 mi
9:55 AM91 °FScattered clouds.9 mph59%29.74 "Hg4 mi
9:25 AM90 °FScattered clouds.15 mph63%29.74 "Hg4 mi
8:55 AM88 °FScattered clouds.13 mph70%29.74 "Hg4 mi
8:25 AM88 °FScattered clouds.10 mph70%29.71 "Hg4 mi
7:25 AM86 °FScattered clouds.13 mph75%29.71 "Hg4 mi
6:55 AM84 °FScattered clouds.14 mph79%29.71 "Hg4 mi
6:25 AM84 °FScattered clouds.12 mph79%29.68 "Hg4 mi
4:55 AM84 °FPassing clouds.9 mph79%29.65 "Hg4 mi
4:25 AM84 °FPassing clouds.9 mph79%29.65 "Hg4 mi
3:55 AM84 °FPassing clouds.12 mph79%29.65 "Hg4 mi
3:25 AM84 °FPassing clouds.9 mph79%29.65 "Hg4 mi
2:55 AM84 °FPassing clouds.7 mph79%29.65 "Hg4 mi
2:25 AM84 °FPassing clouds.12 mph79%29.68 "Hg4 mi
1:55 AM84 °FPassing clouds.14 mph79%29.68 "Hg4 mi
1:25 AM86 °FPassing clouds.12 mph75%29.68 "Hg4 mi
12:55 AM86 °FPassing clouds.9 mph75%29.68 "Hg4 mi
12:25 AM86 °FPassing clouds.10 mph70%29.71 "Hg4 mi
11:55 PM
Tue, May 26
86 °FPassing clouds.12 mph70%29.71 "Hg4 mi
11:25 PM86 °FPassing clouds.14 mph70%29.71 "Hg4 mi
10:55 PM86 °FPassing clouds.12 mph75%29.71 "Hg4 mi
10:25 PM86 °FPassing clouds.12 mph75%29.71 "Hg4 mi
9:55 PM86 °FPassing clouds.12 mph75%29.68 "Hg4 mi
9:25 PM86 °FPassing clouds.14 mph75%29.68 "Hg4 mi
9:00 PM86 °FPassing clouds.12 mph75%29.68 "Hg4 mi
8:30 PM86 °FPassing clouds.12 mph75%29.68 "Hg4 mi
7:55 PM86 °FPassing clouds.12 mph75%29.68 "Hg4 mi
7:30 PM88 °FPassing clouds.12 mph70%29.65 "Hg4 mi
7:00 PM88 °FScattered clouds.14 mph70%29.65 "Hg4 mi
6:25 PM88 °FScattered clouds.16 mph70%29.65 "Hg4 mi
6:00 PM88 °FScattered clouds.16 mph66%29.65 "Hg4 mi
5:30 PM91 °FPassing clouds.17 mph63%29.65 "Hg4 mi
5:00 PM91 °FPassing clouds.17 mph63%29.62 "Hg4 mi
4:30 PM91 °FPassing clouds.16 mph63%29.62 "Hg4 mi
Weather by CustomWeather, © 2015

See weather overviewHow to use our weather pages